CINEMA-3 (KHUSAT-2)

Last updated on Tue Mar 29 2016 17:38:26 GMT+0000 (Coordinated Universal Time)

1 39426U 13066L 16088.88816464 .00000235 00000-0 45082-4 0 9991 2 39426 97.6760 130.0403 0104308 326.6534 32.8129 14.68916372125681
UTC large
Height (km)
Speed (km/s)
/
Latitude / Longitude
Inclination (degrees)
Orbital Period (minutes)
Azimuth
Elevation
Range (km)
Doppler Factor

Next 0 passes for location: London (51.5072 / 0.1276)

Sorry there are no passes over London.
CINEMA-3 (KHUSAT-2)